DateTimeUTC,F1_A11,F1_S11,BsB_S11,BsG_S11,BsR_S11,BbsB_S11,BbsG_S11,BbsR_S11,BaB_A11,BaG_A11,BaR_A11,Tu_S11,T_S11,Uu_S11,U_S11,P_S11,T1_A11
2021-03-12T15:00:00Z,00000200,21000000,,,,,,,-000.07,0000.27,0000.18,17.4,24.6,,00.0,0637.4,31.0
2021-03-12T15:01:00Z,00000200,21000000,,,,,,,0000.42,0000.23,0000.08,17.5,24.7,,00.0,0637.4,31.0
2021-03-12T15:02:00Z,00000200,21000000,,,,,,,0000.06,0000.08,0000.45,17.5,24.7,,00.0,0637.4,31.0
2021-03-12T15:03:00Z,00000200,61010000,,,,,,,0000.43,0000.51,-000.17,17.6,24.7,,00.0,0637.4,31.0
2021-03-12T15:04:00Z,00000200,41000000,0000.41,0000.27,0000.22,0000.21,0000.02,0000.11,0000.26,0000.16,0000.51,18.0,24.7,,00.0,0638.3,31.0
2021-03-12T15:05:00Z,00000200,01000000,0000.61,0000.40,0000.08,0000.02,0000.24,-000.04,0000.44,0000.59,0000.10,18.1,24.7,,00.0,0638.4,31.0
2021-03-12T15:06:00Z,00000200,01000000,0000.47,0000.19,0000.03,0000.06,0000.01,0000.06,0000.86,0000.53,0000.37,18.1,24.7,,00.0,0638.4,31.0
2021-03-12T15:07:00Z,00000200,01000000,0000.92,0000.54,0000.33,0000.30,0000.09,0000.05,0000.39,0000.68,0000.48,18.1,24.7,,00.0,0638.4,31.0
2021-03-12T15:08:00Z,00000200,01000000,0000.54,0000.49,0000.17,0000.10,0000.33,-000.30,0000.78,0000.17,0000.45,18.0,24.7,,00.0,0638.4,31.0
2021-03-12T15:09:00Z,00000200,01000000,0001.13,0000.26,-000.00,-000.03,0000.12,0000.09,0000.08,0000.38,0000.26,18.0,24.7,,00.0,0638.4,31.0
2021-03-12T15:10:00Z,00000200,01000000,0000.86,0000.59,0000.24,-000.14,0000.10,0000.06,0000.52,0000.87,0000.45,18.0,24.7,,00.0,0638.5,31.0
2021-03-12T15:11:00Z,00000200,01000000,0000.81,0000.31,0000.24,0000.66,0000.06,0000.08,0000.01,-000.04,-000.11,18.0,24.7,,00.0,0638.5,31.0
2021-03-12T15:12:00Z,00000200,01000000,0000.73,0000.43,0000.37,0000.55,0000.11,0000.18,0000.61,0000.53,0000.51,18.0,24.7,,00.0,0638.5,31.0
2021-03-12T15:13:00Z,00000200,01000000,0001.28,0000.43,0000.25,0000.57,0000.10,0000.01,0000.41,0000.17,0000.15,17.9,24.7,,00.0,0638.5,31.0
2021-03-12T15:14:00Z,00000200,01000000,0001.24,0000.46,0000.12,0000.17,0000.17,-000.12,0000.33,0000.22,0000.33,17.9,24.7,,00.0,0638.5,31.0
2021-03-12T15:15:00Z,00000200,01000000,0001.02,0000.20,0000.28,0000.68,-000.02,0000.14,0000.59,0000.39,0000.32,17.9,24.7,,00.0,0638.5,31.0
2021-03-12T15:16:00Z,00000200,01000000,0000.58,0000.48,0000.16,0000.51,0000.18,0000.03,0000.25,0000.54,0000.26,17.9,24.7,,00.0,0638.5,31.0
2021-03-12T15:17:00Z,00000200,01000000,0001.13,0000.47,0000.10,0000.06,-000.06,-000.01,0000.27,-000.02,0000.01,17.9,24.7,,00.0,0638.5,31.0
2021-03-12T15:18:00Z,00000200,01000000,0001.00,0000.34,0000.16,-000.15,-000.15,0000.01,0000.35,0000.34,0000.38,17.9,24.7,,00.0,0638.5,31.0
2021-03-12T15:19:00Z,00000200,01000000,0000.80,0000.30,0000.06,0000.17,0000.13,0000.12,0000.63,0000.58,0000.18,17.9,24.7,,00.0,0638.5,31.0
2021-03-12T15:20:00Z,00000200,01000000,0000.39,0000.38,0000.14,-000.16,0000.10,0000.12,0000.62,0000.61,0000.67,17.9,24.6,,00.0,0638.5,31.0
2021-03-12T15:21:00Z,00000200,01000000,0001.04,0000.33,0000.22,0000.03,0000.06,0000.04,0000.52,0000.18,0000.25,17.8,24.7,,00.0,0638.6,31.0
2021-03-12T15:22:00Z,00000200,01000000,0001.18,0000.54,0000.56,0000.02,0000.02,-000.07,0000.42,0000.86,0000.62,17.8,24.6,,00.0,0638.6,31.0
2021-03-12T15:23:00Z,00000200,01000000,0001.50,0000.12,0000.27,0000.57,0000.18,-000.05,0000.02,-000.24,-000.31,17.8,24.6,,00.0,0638.6,30.9
2021-03-12T15:24:00Z,00000200,01000000,0001.11,0000.44,0000.22,0000.25,0000.07,0000.05,0000.05,0000.06,-000.04,17.8,24.6,,00.0,0638.7,31.0
2021-03-12T15:25:00Z,00000200,01000000,0001.20,0000.32,0000.52,0000.95,-000.17,0000.30,-000.00,-000.11,0000.35,17.8,24.6,,00.0,0638.7,30.9
2021-03-12T15:26:00Z,00000200,01000000,0000.77,0000.56,0000.32,0000.13,0000.05,-000.10,0000.43,0000.54,-000.09,17.8,24.6,,00.0,0638.7,31.0
2021-03-12T15:27:00Z,00000200,01000000,0001.12,0000.61,0000.31,-000.32,0000.04,0000.06,0000.19,0000.18,0000.23,17.8,24.6,,00.0,0638.7,31.0
2021-03-12T15:28:00Z,00000200,01000000,0001.03,0000.35,0000.21,0000.04,0000.11,0000.04,0000.11,0000.19,0000.13,17.8,24.6,,00.0,0638.7,31.0
2021-03-12T15:29:00Z,00000200,01000000,0001.20,0000.56,0000.15,-000.14,0000.27,-000.05,0000.39,0000.45,0000.71,17.8,24.6,,00.0,0638.7,30.9
2021-03-12T15:30:00Z,00000200,01000000,0001.04,0000.39,0000.25,0000.32,-000.04,-000.03,0000.35,0000.32,-000.28,17.8,24.6,,00.0,0638.8,30.9
2021-03-12T15:31:00Z,00000200,01000000,0000.58,0000.45,0000.15,0000.03,-000.11,0000.13,0000.08,-000.27,0000.20,17.7,24.6,,00.0,0638.7,30.9
2021-03-12T15:32:00Z,00000200,01000000,0001.05,0000.42,0000.09,0000.21,0000.01,-000.03,0000.12,-000.06,0000.25,17.7,24.6,,00.0,0638.7,30.9
2021-03-12T15:33:00Z,00000200,01000000,0001.13,0000.49,0000.20,-000.04,0000.07,0000.03,0000.16,0000.07,-000.03,17.7,24.6,,00.0,0638.8,31.0
2021-03-12T15:34:00Z,00000200,01000000,0000.54,0000.44,0000.17,0000.12,0000.04,-000.05,-000.06,0000.59,-000.06,17.7,24.6,,00.0,0638.7,30.9
2021-03-12T15:35:00Z,00000200,01000000,0001.02,0000.27,0000.54,0000.30,0000.04,0000.24,0000.58,0000.04,0000.19,17.7,24.5,,00.0,0638.7,30.9
2021-03-12T15:36:00Z,00000200,01000000,0000.31,0000.51,-000.03,-000.00,0000.13,0000.06,0000.38,0000.49,0000.30,17.7,24.5,,00.0,0638.7,31.0
2021-03-12T15:37:00Z,00000200,01000000,0001.15,0000.56,0000.50,0000.19,0000.18,0000.02,0000.37,0000.93,0000.86,17.7,24.5,,00.0,0638.8,30.9
2021-03-12T15:38:00Z,00000200,01000000,0001.25,0000.50,0000.28,-000.12,0000.29,0000.15,0000.77,0000.15,0000.22,17.6,24.5,,00.0,0638.8,30.9
2021-03-12T15:39:00Z,00000200,01000000,0001.25,0000.30,0000.12,0000.50,-000.05,-000.37,0000.51,0000.49,0000.33,17.6,24.5,,00.0,0638.8,30.9
2021-03-12T15:40:00Z,00000200,01000000,0001.06,0000.43,0000.28,0000.43,-000.01,0000.24,0000.02,0000.11,0000.02,17.6,24.5,,00.0,0638.8,30.9
2021-03-12T15:41:00Z,00000200,01000000,0000.42,0000.45,0000.30,0000.08,0000.06,0000.06,0000.35,0000.30,0000.06,17.6,24.5,,00.0,0638.8,30.9
2021-03-12T15:42:00Z,00000200,01000000,0001.41,0000.47,0000.19,0000.56,0000.05,0000.02,0000.35,-000.02,0000.52,17.6,24.4,,00.0,0638.8,30.9
2021-03-12T15:43:00Z,00000200,01000000,0000.36,0000.32,0000.31,0000.32,0000.03,0000.07,0000.26,0000.64,0000.15,17.6,24.4,,00.0,0638.8,30.9
2021-03-12T15:44:00Z,00000200,01000000,0000.98,0000.23,0000.22,-000.52,-000.00,-000.01,0000.59,0000.52,0000.09,17.7,24.5,,00.0,0638.8,30.9
2021-03-12T15:45:00Z,00000200,01000000,0000.48,0000.27,0000.22,0000.01,0000.28,0000.07,0000.28,0000.28,0000.13,17.8,24.5,,00.0,0638.8,31.0
2021-03-12T15:46:00Z,00000200,01000000,0001.19,0000.31,0000.08,0000.56,0000.16,0000.26,-000.13,-000.37,0000.60,17.8,24.5,,00.0,0638.8,31.0
2021-03-12T15:47:00Z,00000200,01000000,0000.98,0000.26,0000.13,-000.23,0000.26,0000.02,0000.67,0000.52,0000.03,17.8,24.5,,00.0,0638.8,31.0
2021-03-12T15:48:00Z,00000200,01000000,0000.88,0000.50,0000.08,0000.10,-000.06,0000.09,0000.51,0000.63,0000.56,17.9,24.6,,00.0,0638.9,31.0
2021-03-12T15:49:00Z,00000200,01000000,0000.92,0000.50,0000.09,-000.24,-000.01,-000.10,0000.35,0000.28,-000.00,17.8,24.5,,00.0,0638.9,31.0
2021-03-12T15:50:00Z,00000200,01000000,0000.71,0000.38,0000.12,0000.01,0000.22,0000.22,0000.40,0000.36,0000.10,17.8,24.5,,00.0,0638.9,31.0
2021-03-12T15:51:00Z,00000200,01000000,0001.19,0000.40,0000.44,-000.19,-000.10,-000.03,0000.20,0000.17,0000.64,17.8,24.5,,00.0,0638.9,31.0
2021-03-12T15:52:00Z,00000200,01000000,0001.03,0000.31,-000.08,-000.14,0000.15,-000.02,0000.34,0000.39,0000.18,17.8,24.5,,00.0,0638.9,31.0
2021-03-12T15:53:00Z,00000200,01000000,0001.21,0000.37,0000.19,-000.01,0000.07,0000.43,0000.40,0000.61,0000.30,17.8,24.5,,00.0,0638.9,31.0
2021-03-12T15:54:00Z,00000200,01000000,0001.29,0000.45,0000.22,0000.01,0000.14,0000.07,0000.31,0000.15,0000.32,17.8,24.5,,00.0,0638.9,30.9
2021-03-12T15:55:00Z,00000200,01000000,0001.34,0000.42,0000.14,-000.03,0000.22,-000.08,0000.44,0000.39,0000.07,17.7,24.5,,00.0,0638.9,30.9
2021-03-12T15:56:00Z,00000200,01000000,0001.41,0000.27,0000.33,0000.15,-000.00,0000.00,0000.21,0000.52,0000.17,17.7,24.5,,00.0,0639.0,30.9
2021-03-12T15:57:00Z,00000200,41000000,,,,,,,-000.59,-001.01,-000.57,17.8,24.6,,00.0,0639.0,30.9
2021-03-12T15:58:00Z,00000200,61000000,,,,,,,0000.78,0000.77,0000.49,17.5,24.6,,00.0,0638.0,30.9
2021-03-12T15:59:00Z,00000200,21000000,,,,,,,0000.43,0000.37,0000.34,17.5,24.7,,00.0,0638.0,30.9
